Regional Weather Roundup
Issued by NWS Albany, NY

Home | Current Version | Previous Version | Text Only | Print | Product List | Glossary On
Versions: 1 2 3 4 5 6 7 8 9 10 11 12 13 14 15 16 17 18 19 20 21 22 23 24 25 26 27 28 29 30 31 32 33 34 35 36 37 38 39 40 41 42 43 44 45 46 47 48 49 50
011
ASUS41 KALY 231110
RWRALY

NEW YORK STATE HOURLY WEATHER ROUNDUP
NATIONAL WEATHER SERVICE ALBANY NY
600 AM EST FRI FEB 23 2018

NOTE: "FAIR" INDICATES FEW OR NO CLOUDS BELOW 12,000 FEET WITH NO
SIGNIFICANT WEATHER AND/OR NO OBSTRUCTIONS TO VISIBILITY.

NYZ032-033-038>043-046>054-057>066-NYZ062>081-082-084-231200-
EAST


CITY           SKY/WX    TMP DP  RH WIND       PRES   REMARKS
ALBANY         CLOUDY    21  16  81 CALM      30.67F
GLENS FALLS    FAIR      15  14  95 CALM      30.66F
POUGHKEEPSIE   CLOUDY    30  27  88 N5        30.66S WCI  25
NEWBURGH       CLOUDY    30  30 100 E7        30.65S FOG     WCI  23
MONTGOMERY     CLOUDY    30  28  92 NE6       30.63F WCI  24
WHITE PLAINS   CLOUDY    33  31  92 NE6       30.62F WCI  28
ISLIP          CLOUDY    35  32  88 NE6       30.65F WCI  30
NEW YORK CITY  CLOUDY    37  32  82 NE12      30.64F WCI  29
CENTRAL PARK   CLOUDY    36  32  85 NE10      30.65F WCI  28
$$

NYZ005>009-017-018-044>046-055-056-231200-
CENTRAL


CITY           SKY/WX    TMP DP  RH WIND       PRES   REMARKS
FULTON         CLOUDY    31  28  89 SE7       30.52F WCI  24
SYRACUSE       CLOUDY    30  29  96 E12       30.54F WCI  20
ROME           MOCLDY    29  25  85 SE9       30.59F WCI  20
ELMIRA         CLOUDY    36  33  89 SE3       30.49F
BINGHAMTON     CLOUDY    30  29  96 SE9       30.48F WCI  22
MONTICELLO       N/A     28  27  93 MISG        N/A
$$

NYZ026>034-041>043-087-231200-
NORTH


CITY           SKY/WX    TMP DP  RH WIND       PRES   REMARKS
WATERTOWN      FAIR      21  20  96 CALM      30.54F
FORT DRUM      NOT AVBL
OGDENSBURG     FAIR      24  21  90 CALM      30.58S
MASSENA        FAIR      19  16  88 E5        30.59F WCI  12
SARANAC LAKE   CLOUDY    16  14  92 MISG      30.49F
PLATTSBURGH    FAIR      17  14  88 CALM      30.65F
$$

NYZ001>004-010>016-019>021-085-231200-
WEST


CITY           SKY/WX    TMP DP  RH WIND       PRES   REMARKS
NIAGARA FALLS  CLOUDY    36  30  79 E10       30.38F WCI  28
BUFFALO        CLOUDY    35  32  88 E9        30.38F WCI  28
DUNKIRK        CLOUDY    37  35  92 CALM      30.38F
JAMESTOWN        N/A    N/A N/A N/A MISG        N/A
WELLSVILLE     CLOUDY    34  33  96 SE10G18   30.39S FOG     WCI  26
ROCHESTER      CLOUDY    34  32  92 SE10      30.45F WCI  26
PENN YAN       CLOUDY    34  30  85 VRB5      30.48S WCI  30
$$

             KEY
       WCI = WIND CHILL INDEX
       VSB = VISIBILITY
       HX  = HEAT INDEX
$$




USA.gov is the U.S. government's official web portal to all federal, state and local government web resources and services.